Weather History for KEHR - March, 2013

Change the Weather History Date:

Tuesday, March 5, 2013

  Actual Average Record
Temperature  
Mean Temperature 39 °F -  
Max Temperature 46 °F 54 °F 77 °F (1956)
Min Temperature 32 °F 32 °F -3 °F (1960)
Degree Days  
Heating Degree Days 26    
Moisture  
Dew Point 27 °F    
Average Humidity 63    
Maximum Humidity 71    
Minimum Humidity 48    
Precipitation  
Precipitation 0.11 in - - ()
Sea Level Pressure  
Sea Level Pressure 29.85 in    
Wind  
Wind Speed 12 mph (WNW)    
Max Wind Speed 31 mph    
Max Gust Speed 40 mph    
Visibility 9 miles    
Events      
Averages and records for this station are not official NWS values.
T = Trace of Precipitation, MM = Missing Value Source: NWS Daily Summary

Daily Weather History Graph

Daily Weather History Graph

Search for Another Location

Airport or City:

Trip Planner

Search our weather history database for the weather conditions in past years. The results will help you decide how hot, cold, wet, or windy it might be!

Date:

Astronomy

Mar. 05, 2013 Rise Set
Actual Time 6:16 AM CST 5:48 PM CST
Civil Twilight 5:49 AM CST 6:14 PM CST
Nautical Twilight 5:19 AM CST 6:45 PM CST
Astronomical Twilight 4:49 AM CST 7:15 PM CST
Moon 1:23 AM CST (3/5) 11:32 AM CST (3/5)
Length of Visible Light 12h 24m
Length of Day
11h 32m
Last Quarter, 40% of the Moon is Illuminated
Mar 5
Last Quarter
Mar 11
New
Mar 19
First Quarter
Mar 27
Full
Apr 2
Last Quarter

Hourly Weather History & Observations

Time (CST) Temp. Windchill Dew Point Humidity Pressure Visibility Wind Dir Wind Speed Gust Speed Precip Events Conditions
12:15 AM 44.6 °F 41.4 °F 30.2 °F 57% 29.82 in 10.0 mi ESE 5.8 mph - N/A   Overcast
1:55 AM 46.4 °F 42.4 °F 30.2 °F 53% 29.81 in 10.0 mi SE 8.1 mph - 0.01 in   Overcast
2:15 AM 46.4 °F 41.9 °F 32.0 °F 57% 29.80 in 10.0 mi SE 9.2 mph - N/A   Overcast
2:35 AM 44.6 °F 39.7 °F 32.0 °F 61% 29.79 in 10.0 mi SE 9.2 mph - N/A   Overcast
2:55 AM 44.6 °F 39.2 °F 33.8 °F 66% 29.78 in 10.0 mi SE 10.4 mph - N/A   Overcast
3:15 AM 44.6 °F 39.7 °F 33.8 °F 66% 29.77 in 10.0 mi SE 9.2 mph - N/A   Overcast
3:35 AM 44.6 °F 40.7 °F 33.8 °F 66% 29.77 in 10.0 mi SE 6.9 mph - N/A   Overcast
3:55 AM 44.6 °F 41.4 °F 33.8 °F 66% 29.77 in 10.0 mi SE 5.8 mph - N/A   Overcast
4:15 AM 44.6 °F 41.4 °F 33.8 °F 66% 29.77 in 10.0 mi ESE 5.8 mph - N/A   Overcast
4:35 AM 44.6 °F 41.4 °F 33.8 °F 66% 29.77 in 10.0 mi SE 5.8 mph - N/A   Mostly Cloudy
4:55 AM 44.6 °F 42.2 °F 33.8 °F 66% 29.77 in 10.0 mi SE 4.6 mph - N/A   Partly Cloudy
5:15 AM 44.6 °F 43.1 °F 33.8 °F 66% 29.78 in 10.0 mi SE 3.5 mph - N/A   Clear
5:35 AM 42.8 °F - 32.0 °F 66% 29.79 in 10.0 mi Calm Calm - N/A   Mostly Cloudy
6:15 AM 41.0 °F 39.0 °F 30.2 °F 65% 29.78 in 10.0 mi East 3.5 mph - N/A   Overcast
6:35 AM 41.0 °F 39.0 °F 30.2 °F 65% 29.77 in 10.0 mi East 3.5 mph - N/A   Overcast
7:35 AM 42.8 °F - 33.8 °F 70% 29.78 in 10.0 mi Calm Calm - N/A   Overcast
7:55 AM 42.8 °F - 33.8 °F 70% 29.78 in 10.0 mi Calm Calm - N/A   Mostly Cloudy
8:15 AM 44.6 °F - 35.6 °F 71% 29.77 in 10.0 mi Calm Calm - N/A   Scattered Clouds
8:35 AM 44.6 °F - 35.6 °F 71% 29.76 in 10.0 mi Calm Calm - N/A   Partly Cloudy
8:55 AM 46.4 °F - 37.4 °F 71% 29.75 in 10.0 mi Calm Calm - N/A   Clear
9:15 AM 46.4 °F 45.2 °F 37.4 °F 71% 29.75 in 10.0 mi West 3.5 mph - N/A   Clear
9:36 AM 46.4 °F 44.3 °F 37.4 °F 71% 29.75 in 10.0 mi West 4.6 mph - N/A   Scattered Clouds
9:55 AM 46.4 °F 40.7 °F 35.6 °F 66% 29.75 in 10.0 mi West 12.7 mph - N/A   Overcast
10:15 AM 46.4 °F 41.5 °F 35.6 °F 66% 29.74 in 10.0 mi West 10.4 mph - N/A   Overcast
10:35 AM 46.4 °F 40.1 °F 35.6 °F 66% 29.75 in 10.0 mi WNW 15.0 mph 18.4 mph N/A   Overcast
10:55 AM 44.6 °F 36.6 °F 33.8 °F 66% 29.76 in 10.0 mi WNW 19.6 mph 24.2 mph N/A   Overcast
11:15 AM 42.8 °F 33.8 °F 32.0 °F 66% 29.76 in 10.0 mi WNW 21.9 mph 25.3 mph N/A   Overcast
11:35 AM 42.8 °F 34.3 °F 30.2 °F 61% 29.76 in 10.0 mi NW 19.6 mph 31.1 mph N/A   Overcast
11:55 AM 41.0 °F 31.6 °F 28.4 °F 61% 29.76 in 10.0 mi NW 20.7 mph 28.8 mph N/A   Overcast
12:35 PM 37.4 °F 27.2 °F 26.6 °F 65% 29.79 in 9.0 mi WNW 19.6 mph 32.2 mph 0.01 in   Overcast
12:55 PM 35.6 °F 24.8 °F 24.8 °F 65% 29.80 in 3.0 mi WNW 19.6 mph 26.5 mph 0.04 in   Overcast
1:35 PM 33.8 °F 22.8 °F 24.8 °F 70% 29.81 in 2.0 mi WNW 18.4 mph 25.3 mph 0.03 in   Overcast
1:55 PM 33.8 °F 21.6 °F 24.8 °F 70% 29.81 in 2.5 mi WNW 23.0 mph - 0.05 in   Overcast
2:15 PM 33.8 °F 22.5 °F 24.8 °F 70% 29.82 in 4.0 mi WNW 19.6 mph 28.8 mph 0.01 in   Overcast
2:35 PM 33.8 °F 22.5 °F 24.8 °F 70% 29.83 in 3.0 mi WNW 19.6 mph 27.6 mph 0.01 in   Overcast
2:55 PM 33.8 °F 21.0 °F 24.8 °F 70% 29.84 in 10.0 mi WNW 25.3 mph 31.1 mph 0.01 in   Overcast
3:15 PM 33.8 °F 20.3 °F 24.8 °F 70% 29.85 in 10.0 mi WNW 28.8 mph 34.5 mph N/A   Overcast
3:35 PM 35.6 °F 23.4 °F 24.8 °F 65% 29.86 in 10.0 mi WNW 25.3 mph 36.8 mph N/A   Overcast
3:55 PM 35.6 °F 23.4 °F 24.8 °F 65% 29.87 in 10.0 mi WNW 25.3 mph 36.8 mph N/A   Overcast
4:15 PM 35.6 °F 23.7 °F 24.8 °F 65% 29.88 in 10.0 mi WNW 24.2 mph 34.5 mph N/A   Overcast
4:55 PM 35.6 °F 23.0 °F 21.2 °F 56% 29.91 in 10.0 mi WNW 27.6 mph 34.5 mph N/A   Overcast
5:35 PM 33.8 °F 19.9 °F 19.4 °F 56% 29.93 in 10.0 mi WNW 31.1 mph 38.0 mph N/A   Overcast
5:55 PM 33.8 °F 21.0 °F 17.6 °F 52% 29.95 in 10.0 mi WNW 25.3 mph 36.8 mph N/A   Overcast
6:15 PM 33.8 °F 20.8 °F 15.8 °F 48% 29.95 in 10.0 mi WNW 26.5 mph 39.1 mph N/A   Overcast
6:35 PM 33.8 °F 20.5 °F 15.8 °F 48% 29.96 in 10.0 mi WNW 27.6 mph 40.3 mph N/A   Overcast
6:55 PM 32.0 °F 18.4 °F 15.8 °F 51% 29.97 in 10.0 mi WNW 26.5 mph 40.3 mph N/A   Overcast
7:15 PM 32.0 °F 18.9 °F 15.8 °F 51% 29.97 in 10.0 mi West 24.2 mph 29.9 mph N/A   Overcast
7:35 PM 32.0 °F 20.5 °F 15.8 °F 51% 29.97 in 10.0 mi West 18.4 mph 26.5 mph N/A   Overcast
7:55 PM 32.0 °F 19.5 °F 17.6 °F 55% 29.97 in 10.0 mi West 21.9 mph 28.8 mph N/A   Overcast
8:15 PM 32.0 °F 18.9 °F 17.6 °F 55% 29.96 in 10.0 mi WNW 24.2 mph 29.9 mph N/A   Overcast
8:35 PM 32.0 °F 20.1 °F 17.6 °F 55% 29.96 in 10.0 mi West 19.6 mph 27.6 mph N/A   Overcast
8:55 PM 32.0 °F 20.1 °F 17.6 °F 55% 29.96 in 10.0 mi WNW 19.6 mph 27.6 mph N/A   Overcast
9:15 PM 32.0 °F 20.5 °F 19.4 °F 60% 29.96 in 10.0 mi West 18.4 mph 25.3 mph N/A   Overcast
9:35 PM 32.0 °F 20.8 °F 19.4 °F 60% 29.97 in 10.0 mi West 17.3 mph 26.5 mph N/A   Overcast
9:55 PM 32.0 °F 20.1 °F 19.4 °F 60% 29.97 in 9.0 mi West 19.6 mph 25.3 mph N/A   Overcast
10:15 PM 32.0 °F 20.1 °F 19.4 °F 60% 29.97 in 10.0 mi West 19.6 mph - N/A   Overcast
10:35 PM 32.0 °F 19.8 °F 19.4 °F 60% 29.97 in 10.0 mi WNW 20.7 mph 27.6 mph N/A   Overcast
10:55 PM 32.0 °F 18.6 °F 19.4 °F 60% 29.97 in 10.0 mi WNW 25.3 mph 29.9 mph N/A   Overcast
11:15 PM 32.0 °F 19.8 °F 19.4 °F 60% 29.97 in 10.0 mi WNW 20.7 mph 27.6 mph N/A   Overcast
11:35 PM 32.0 °F 19.2 °F 19.4 °F 60% 29.97 in 10.0 mi WNW 23.0 mph 29.9 mph N/A   Overcast
11:55 PM 32.0 °F 19.2 °F 19.4 °F 60% 29.97 in 10.0 mi WNW 23.0 mph 29.9 mph N/A   Overcast